Погода в Пупках

Россия / Рязанская область     53°46′36″N   39°27′58″E
темп.,
°C
ветер,
м/с
пор.,
м/с
влажн.,
%
обл.,
%
осадки,
мм/ч
давл.,
гПа
погр.,
м
9 мая, вс
вс900:00+10юз51092100 0.5 1003430
03:00+9ююз51095100 0.5 1004462
06:00+7ююз5793100 0.1 1005434
09:00+6сз7893100 0.1 1007714
12:00+3сз71296100 0.3 1011672
15:00+5сз81289100 0.4 10141053
18:00+7ссз6138380 0.2 10171255
21:00+4с24935 0.3 102067
10 мая, пн
пн1000:00+4сз36945 0.0 1021112
03:00+3ссз412884 0.0 1023262
06:00+4ссз512876 0.0 1025334
09:00+8с812610 0.0 10261094
12:00+11ссв911510 0.0 10261308
15:00+13ссв810493 0.0 10261500
18:00+12ссв611610 0.0 1026755
21:00+9ссв6147191 0.0 1027533
11 мая, вт
вт1100:00+7св6157824 0.0 1027475
03:00+6св716865 0.0 1027460
06:00+6св715875 0.0 1027439
09:00+11св81274100 0.0 1027584
12:00+14всв71173100 0.0 1027670
15:00+16всв797194 0.0 10261126
18:00+16св597978 0.0 1026523
21:00+13св6139148 0.0 1025391
12 мая, ср
ср1200:00+11всв4996100 0.2 1025324
03:00+12св4997100 0.3 1023316
06:00+11всв51198100 0.2 1023352
09:00+12всв81794100 3.1 1021817
12:00+14юз347931 0.2 1024637
15:00+15юв2473100 0.3 1024860
18:00+15св2282100 0.0 102338
21:00+14св3795100 0.2 1022150
13 мая, чт
чт1300:00+14в41192100 0.6 1021412
03:00+13в6139099 1.1 1020454
06:00+13в41191100 0.3 1019356
09:00+15вюв6108382 0.8 1019599
12:00+16юв61085100 0.3 1019719
15:00+15вюв589299 0.4 1019560
18:00+18юв488323 0.1 1018578
21:00+14вюв369399 0.4 101999